Location: Sungai Laei
(2.6000°N, 113.7167°E)
Time: 11:43:41
(UTC+00:00)

SWIFT - Pass Details

Date: 22 May 2022
Orbit: 539 x 554 km, 20.6° (Epoch: 06 July)

Event Time Altitude Azimuth Distance (km) Brightness Sun altitude
Exits shadow 21:33:22 13° 268° (W) 1,647 4.2 -10.4°
Maximum altitude 21:36:50 38° 202° (SSW) 847 2.9 -9.6°
Drops below altitude 10° 21:40:46 10° 133° (SE) 1,814 5.3 -8.7°
Sets 21:43:10 0° 125° (SE) 2,705 6.4 -8.1°
